TimeEST,TemperatureF,Dew PointF,Humidity,Sea Level PressureIn,VisibilityMPH,Wind Direction,Wind SpeedMPH,Gust SpeedMPH,PrecipitationIn,Events,Conditions,WindDirDegrees,DateUTC
12:54 AM,19.0,17.1,92,29.88,4.0,WNW,16.1,-,0.00,Snow,Light Snow,300,2013-03-03 05:54:00
1:54 AM,19.0,17.1,92,29.88,4.0,WNW,12.7,-,0.00,Snow,Light Snow,290,2013-03-03 06:54:00
3:45 AM,19.4,17.6,93,29.75,1.8,WNW,11.5,-,0.00,Snow,Light Snow,290,2013-03-03 08:45:00
3:54 AM,19.0,17.1,92,29.86,1.0,WNW,11.5,-,0.00,Snow,Light Snow,300,2013-03-03 08:54:00
4:02 AM,19.4,17.6,93,29.76,0.8,WNW,11.5,-,0.00,Snow,Light Snow,290,2013-03-03 09:02:00
4:11 AM,19.4,17.6,93,29.76,1.0,WNW,11.5,-,0.00,Snow,Light Snow,300,2013-03-03 09:11:00
4:54 AM,19.9,17.1,89,29.87,0.8,WNW,13.8,-,0.00,Snow,Light Snow,300,2013-03-03 09:54:00
5:54 AM,19.0,16.0,88,29.87,1.5,WNW,18.4,-,0.01,Snow,Light Snow,290,2013-03-03 10:54:00
6:00 AM,19.4,15.8,86,29.77,1.8,WNW,15.0,-,0.00,Snow,Light Snow,290,2013-03-03 11:00:00
6:10 AM,19.4,15.8,86,29.77,2.0,WNW,17.3,26.5,0.00,Snow,Light Snow,300,2013-03-03 11:10:00
6:15 AM,19.4,15.8,86,29.77,3.0,WNW,18.4,26.5,0.00,Snow,Light Snow,300,2013-03-03 11:15:00
6:30 AM,19.4,15.8,86,29.77,5.0,WNW,15.0,23.0,0.00,Snow,Light Snow,300,2013-03-03 11:30:00
6:54 AM,18.0,15.1,88,29.88,4.0,WNW,16.1,-,0.00,Snow,Light Snow,300,2013-03-03 11:54:00
7:13 AM,17.6,15.8,93,29.78,1.8,NW,18.4,-,0.00,Snow,Light Snow,310,2013-03-03 12:13:00
7:34 AM,17.6,15.8,93,29.78,1.5,WNW,17.3,-,0.00,Snow,Light Snow,300,2013-03-03 12:34:00
7:54 AM,19.0,15.1,85,29.89,0.8,WNW,18.4,25.3,0.00,Snow,Light Snow,290,2013-03-03 12:54:00
8:05 AM,19.4,15.8,86,29.79,0.8,WNW,17.3,25.3,0.00,Snow,Light Snow,290,2013-03-03 13:05:00
8:13 AM,19.4,15.8,86,29.79,0.8,WNW,15.0,-,0.00,Snow,Light Snow,300,2013-03-03 13:13:00
8:23 AM,19.4,15.8,86,29.79,1.0,WNW,12.7,20.7,0.00,Snow,Light Snow,300,2013-03-03 13:23:00
8:46 AM,19.4,15.8,86,29.78,1.0,WNW,16.1,-,0.00,Snow,Light Snow,300,2013-03-03 13:46:00
8:54 AM,19.0,15.1,85,29.89,1.2,West,10.4,23.0,0.00,Snow,Light Snow,280,2013-03-03 13:54:00
9:49 AM,19.4,15.8,86,29.79,1.5,WNW,15.0,21.9,0.00,Snow,Light Snow,290,2013-03-03 14:49:00
9:54 AM,19.0,15.1,85,29.90,1.2,WNW,12.7,-,0.00,Snow,Light Snow,300,2013-03-03 14:54:00
10:18 AM,19.4,15.8,86,29.79,1.0,WNW,10.4,18.4,0.00,Snow,Light Snow,290,2013-03-03 15:18:00
10:25 AM,19.4,15.8,86,29.79,1.0,West,13.8,20.7,0.00,Snow,Light Snow,280,2013-03-03 15:25:00
10:49 AM,19.4,15.8,86,29.79,2.5,West,13.8,-,0.00,Snow,Light Snow,280,2013-03-03 15:49:00
10:54 AM,19.9,15.1,81,29.89,3.0,WNW,16.1,20.7,0.00,Snow,Light Snow,290,2013-03-03 15:54:00
11:04 AM,19.4,15.8,86,29.79,2.0,West,16.1,-,0.00,Snow,Light Snow,280,2013-03-03 16:04:00
11:54 AM,19.9,15.1,81,29.89,2.0,WNW,18.4,23.0,0.00,Snow,Light Snow,290,2013-03-03 16:54:00
12:04 PM,21.2,15.8,80,29.79,2.0,West,17.3,24.2,0.00,Snow,Light Snow,280,2013-03-03 17:04:00
12:22 PM,19.4,15.8,86,29.79,1.5,West,12.7,21.9,0.00,Snow,Light Snow,270,2013-03-03 17:22:00
12:54 PM,19.9,15.1,81,29.88,1.2,West,17.3,-,0.00,Snow,Light Snow,280,2013-03-03 17:54:00
1:25 PM,21.2,15.8,80,29.77,2.0,West,17.3,21.9,0.00,Snow,Light Snow,280,2013-03-03 18:25:00
1:54 PM,21.0,15.1,78,29.87,2.0,West,16.1,-,0.00,Snow,Light Snow,280,2013-03-03 18:54:00
2:13 PM,21.2,15.8,80,29.77,1.8,WNW,13.8,-,0.00,Snow,Light Snow,290,2013-03-03 19:13:00
2:18 PM,21.2,15.8,80,29.77,3.0,West,15.0,-,0.00,Snow,Light Snow,280,2013-03-03 19:18:00
2:31 PM,21.2,15.8,80,29.77,2.5,West,11.5,-,0.00,Snow,Light Snow,280,2013-03-03 19:31:00
2:47 PM,21.2,15.8,80,29.77,1.8,West,12.7,-,0.00,Snow,Light Snow,280,2013-03-03 19:47:00
2:54 PM,21.0,16.0,81,29.87,1.5,West,13.8,-,0.00,Snow,Light Snow,280,2013-03-03 19:54:00
3:05 PM,21.2,15.8,80,29.77,0.8,WNW,12.7,-,0.00,Snow,Light Snow,290,2013-03-03 20:05:00
3:13 PM,21.2,17.6,86,29.77,1.0,West,11.5,-,0.00,Snow,Light Snow,280,2013-03-03 20:13:00
3:37 PM,21.2,15.8,80,29.77,1.0,West,13.8,-,0.00,Snow,Light Snow,280,2013-03-03 20:37:00
3:54 PM,21.0,16.0,81,29.88,1.5,WNW,13.8,-,0.00,Snow,Light Snow,290,2013-03-03 20:54:00
4:10 PM,21.2,15.8,80,29.78,0.5,West,15.0,-,0.00,Snow,Snow,280,2013-03-03 21:10:00
4:22 PM,21.2,17.6,86,29.78,1.0,WNW,16.1,20.7,0.00,Snow,Light Snow,290,2013-03-03 21:22:00
4:32 PM,21.2,15.8,80,29.78,1.0,West,17.3,24.2,0.00,Snow,Light Snow,280,2013-03-03 21:32:00
4:49 PM,21.2,15.8,80,29.79,2.0,West,16.1,-,0.00,Snow,Light Snow,280,2013-03-03 21:49:00
4:54 PM,21.0,16.0,81,29.89,2.0,WNW,17.3,-,0.00,Snow,Light Snow,290,2013-03-03 21:54:00
5:06 PM,19.4,15.8,86,29.79,1.2,WNW,13.8,-,0.00,Snow,Light Snow,290,2013-03-03 22:06:00
5:29 PM,19.4,15.8,86,29.79,1.2,West,16.1,-,0.00,Snow,Light Snow,270,2013-03-03 22:29:00
5:38 PM,19.4,15.8,86,29.79,2.0,West,16.1,21.9,0.00,Snow,Light Snow,280,2013-03-03 22:38:00
5:45 PM,19.4,15.8,86,29.79,2.0,West,13.8,24.2,0.00,Snow,Light Snow,280,2013-03-03 22:45:00
5:52 PM,19.4,15.8,86,29.79,1.5,West,16.1,-,0.00,Snow,Light Snow,280,2013-03-03 22:52:00
5:54 PM,19.9,16.0,85,29.90,1.5,West,16.1,-,0.00,Snow,Light Snow,280,2013-03-03 22:54:00
6:20 PM,19.4,15.8,86,29.80,1.5,West,13.8,21.9,0.00,Snow,Light Snow,280,2013-03-03 23:20:00
6:30 PM,19.4,15.8,86,29.81,2.0,WNW,13.8,-,0.00,Snow,Light Snow,290,2013-03-03 23:30:00
6:45 PM,19.4,15.8,86,29.81,1.8,West,15.0,-,0.00,Snow,Light Snow,270,2013-03-03 23:45:00
6:54 PM,19.9,16.0,85,29.92,1.8,West,15.0,-,0.00,Snow,Light Snow,280,2013-03-03 23:54:00
7:10 PM,19.4,17.6,93,29.82,2.0,West,10.4,-,0.00,Snow,Light Snow,280,2013-03-04 00:10:00
7:46 PM,19.4,15.8,86,29.82,2.5,West,12.7,-,0.00,Snow,Light Snow,280,2013-03-04 00:46:00
7:54 PM,19.9,16.0,85,29.93,2.0,West,11.5,-,0.00,Snow,Light Snow,280,2013-03-04 00:54:00
8:22 PM,19.4,17.6,93,29.83,3.0,West,13.8,20.7,0.00,Snow,Light Snow,280,2013-03-04 01:22:00
8:54 PM,19.0,16.0,88,29.94,1.8,WNW,16.1,24.2,0.00,Snow,Light Snow,290,2013-03-04 01:54:00
9:44 PM,17.6,14.0,86,29.84,2.0,WNW,17.3,24.2,0.00,Snow,Light Snow,290,2013-03-04 02:44:00
9:54 PM,18.0,14.0,84,29.95,2.5,WNW,16.1,-,0.00,Snow,Light Snow,290,2013-03-04 02:54:00
10:02 PM,17.6,14.0,86,29.84,4.0,WNW,15.0,21.9,0.00,Snow,Light Snow,300,2013-03-04 03:02:00
10:24 PM,17.6,12.2,79,29.84,3.0,WNW,16.1,-,0.00,Snow,Light Snow,300,2013-03-04 03:24:00
10:43 PM,17.6,14.0,86,29.84,3.0,NW,15.0,-,0.00,Snow,Light Snow,310,2013-03-04 03:43:00
10:49 PM,17.6,14.0,86,29.84,2.5,NW,13.8,-,0.00,Snow,Light Snow,310,2013-03-04 03:49:00
10:54 PM,18.0,14.0,84,29.95,2.5,NW,13.8,-,0.00,Snow,Light Snow,310,2013-03-04 03:54:00
11:12 PM,17.6,12.2,79,29.84,2.5,NW,16.1,24.2,0.00,Snow,Light Snow,310,2013-03-04 04:12:00
11:40 PM,17.6,12.2,79,29.85,1.8,WNW,16.1,-,0.00,Snow,Light Snow,300,2013-03-04 04:40:00
11:51 PM,17.6,12.2,79,29.85,2.0,WNW,12.7,-,0.00,Snow,Light Snow,300,2013-03-04 04:51:00
11:54 PM,17.1,12.9,84,29.96,2.5,WNW,11.5,-,0.00,Snow,Light Snow,300,2013-03-04 04:54:00